Temp
13 12 12 12 12 12 12 12 12 12 13 13 13 12 12 12 12 12 12 13 12 12 12 12 12 11 11 11 11 9 9 8 7 6 4 2 1 0 0 0 -0 -1 -1
12 13 12 12 12 12 12 12 12 12 12 12 12 12 11 11 12 12 12 12 12 12 13 13 12 11 11 11 11 9 9 8 7 6 4 2 1 0 0 1 0 0 -0
11 11 12 12 12 12 12 12 12 12 12 12 12 12 11 11 11 11 11 12 12 12 12 12 11 11 11 11 11 10 9 8 7 5 4 3 1 1 1 1 1 0 1
12 11 11 11 12 12 12 12 12 12 12 12 12 12 11 11 11 11 11 11 11 11 12 12 11 11 11 10 11 10 9 8 8 6 5 4 2 1 1 1 1 1 1
12 12 12 11 11 12 13 13 12 13 12 12 12 12 12 11 11 11 11 11 11 11 11 11 11 11 11 11 11 10 10 9 8 7 6 5 3 2 1 1 1 1 1
13 13 12 11 11 12 13 13 13 13 12 12 12 12 11 11 11 11 11 11 11 11 11 10 10 11 11 11 10 10 9 9 8 8 6 5 4 2 2 1 1 1 1
13 13 12 11 11 12 13 13 13 13 12 12 12 11 11 11 10 10 11 11 11 11 10 10 10 10 10 10 10 10 9 9 9 8 7 5 5 3 2 2 2 2 2
11 12 12 12 11 11 13 13 13 12 12 12 12 12 11 11 11 10 10 10 10 10 10 10 10 10 10 10 10 10 10 9 9 9 8 6 5 5 3 3 3 3 2
12 11 10 11 11 12 13 13 13 13 13 13 13 13 12 11 11 10 10 10 10 10 10 10 10 10 9 10 10 10 10 9 8 9 8 7 6 6 5 4 4 4 3
12 11 11 13 13 12 13 13 13 13 13 13 13 13 12 11 11 11 10 10 10 10 10 9 9 10 9 9 9 10 10 10 8 9 9 7 7 6 6 5 5 4 4
11 11 11 12 13 12 12 13 13 13 13 13 13 13 11 11 11 11 10 10 10 10 10 10 10 9 9 9 9 9 9 10 8 9 9 7 7 7 7 7 6 6 4
12 11 11 11 11 11 12 13 13 13 13 13 12 11 11 11 11 11 11 10 10 10 9 9 9 9 9 9 9 9 9 9 9 8 9 8 7 7 6 6 6 6 6
12 12 12 11 12 12 12 12 13 13 13 13 12 12 12 11 11 10 10 10 10 9 9 9 9 8 8 8 9 9 9 9 9 8 9 8 7 7 6 6 6 6 5
12 11 11 12 12 12 12 13 13 13 13 12 12 11 11 11 10 10 10 10 9 9 9 10 9 9 9 9 9 9 9 8 9 8 8 8 7 7 7 6 6 6 5
11 11 11 12 12 12 12 12 13 13 13 12 11 11 11 10 10 10 10 10 10 10 9 9 9 9 8 8 8 9 8 8 9 9 8 8 7 7 7 6 6 6 5
10 11 11 12 12 12 13 12 13 13 13 13 12 11 10 10 10 10 10 10 10 9 9 9 8 8 8 7 8 8 9 8 8 8 8 8 7 7 7 7 6 5 5
10 10 11 11 11 12 12 12 13 13 12 12 12 11 10 10 10 10 10 9 9 9 9 9 8 8 7 7 7 8 8 8 8 8 8 8 7 6 6 6 6 5 5
9 9 10 10 10 11 12 12 12 12 12 11 11 11 10 10 11 11 11 9 8 8 8 8 8 8 7 7 7 7 7 7 7 8 8 7 7 6 6 6 6 6 5
7 8 9 9 10 10 10 11 11 10 10 10 10 10 10 11 11 11 10 9 8 7 7 8 8 8 8 7 7 6 6 7 7 7 7 7 7 7 6 6 6 6 5
6 7 7 8 8 9 9 9 9 10 10 10 10 10 10 10 10 9 8 8 8 7 7 8 8 8 8 7 7 7 6 6 6 7 7 7 7 6 6 6 6 6 6
6 7 7 7 8 8 9 9 9 10 10 10 10 9 9 9 9 9 9 8 8 8 8 8 8 8 8 7 7 7 6 5 5 6 6 7 7 7 6 6 6 6 6
6 6 6 7 8 8 8 9 9 9 10 10 10 9 9 9 9 9 9 8 8 8 8 8 8 8 8 7 7 7 6 6 5 6 7 6 7 7 7 6 6 6 6
5 6 6 7 7 7 8 8 9 9 9 10 10 10 9 9 9 9 9 8 8 8 8 8 8 7 7 7 7 7 7 6 6 6 6 6 6 7 7 7 6 6 6
3 4 5 6 6 7 7 8 8 9 9 9 9 9 9 9 9 8 9 9 9 8 7 7 7 7 6 7 7 7 7 7 6 6 6 6 6 6 7 7 7 6 6
2 3 4 5 6 6 7 7 7 7 8 8 8 8 8 8 8 8 8 8 8 8 7 7 7 7 7 6 6 6 6 6 6 6 5 5 5 5 5 6 6 6 5
0 2 3 4 5 5 6 7 7 7 7 7 7 7 7 7 7 7 7 7 7 7 6 6 6 5 5 6 5 5 6 6 6 6 6 5 5 4 5 4 4 5 5
Height
3204 3205 3206 3208 3209 3210 3211 3211 3211 3210 3211 3211 3210 3209 3208 3206 3205 3203 3201 3198 3195 3191 3187 3183 3178 3173 3168 3162 3156 3150 3142 3135 3130 3123 3116 3110 3107 3104 3101 3100 3097 3094 3092
3203 3204 3205 3205 3207 3207 3208 3208 3208 3209 3208 3209 3208 3207 3206 3204 3202 3201 3198 3196 3193 3190 3187 3182 3178 3173 3168 3162 3156 3150 3143 3135 3129 3121 3114 3110 3106 3103 3101 3100 3097 3094 3092
3197 3200 3203 3203 3203 3204 3206 3207 3206 3206 3206 3206 3207 3206 3204 3202 3200 3199 3196 3194 3191 3188 3185 3182 3177 3172 3167 3162 3155 3149 3142 3135 3128 3122 3115 3110 3106 3102 3101 3098 3097 3095 3094
3190 3194 3195 3200 3201 3201 3202 3203 3203 3203 3203 3203 3203 3202 3201 3200 3198 3196 3194 3192 3189 3186 3183 3180 3176 3172 3166 3161 3155 3149 3143 3136 3129 3123 3117 3112 3107 3102 3100 3099 3098 3097 3096
3185 3189 3193 3193 3199 3198 3199 3200 3200 3200 3200 3200 3200 3200 3200 3198 3195 3193 3192 3190 3188 3185 3182 3178 3175 3171 3166 3161 3156 3149 3143 3137 3129 3122 3118 3113 3108 3104 3101 3100 3098 3098 3099
3181 3185 3188 3190 3190 3195 3196 3197 3197 3198 3197 3197 3197 3196 3196 3195 3193 3190 3189 3188 3186 3183 3180 3177 3174 3171 3165 3160 3156 3150 3144 3139 3133 3125 3119 3115 3110 3106 3103 3101 3101 3100 3103
3180 3181 3183 3185 3185 3189 3191 3192 3193 3194 3194 3194 3193 3192 3191 3191 3189 3187 3185 3184 3183 3180 3178 3176 3173 3170 3165 3161 3157 3152 3147 3142 3136 3130 3123 3118 3113 3110 3106 3102 3103 3104 3105
3176 3177 3177 3180 3180 3184 3186 3188 3190 3189 3189 3188 3187 3187 3187 3186 3185 3183 3182 3180 3179 3178 3176 3174 3171 3169 3165 3161 3157 3154 3149 3144 3139 3133 3128 3122 3117 3113 3109 3107 3105 3108 3109
3169 3173 3167 3154 3175 3179 3181 3184 3183 3183 3184 3182 3182 3182 3180 3181 3180 3179 3178 3178 3176 3175 3174 3172 3170 3167 3165 3162 3158 3155 3150 3146 3142 3137 3131 3126 3120 3118 3113 3110 3112 3111 3114
3164 3165 3166 3167 3170 3173 3174 3176 3178 3177 3177 3177 3177 3178 3177 3177 3176 3175 3175 3174 3173 3172 3171 3170 3167 3166 3163 3161 3158 3154 3150 3147 3144 3140 3135 3129 3124 3122 3120 3116 3114 3114 3116
3160 3161 3163 3165 3169 3169 3168 3168 3169 3170 3171 3171 3172 3173 3174 3175 3173 3171 3171 3170 3169 3169 3168 3167 3166 3164 3162 3160 3158 3154 3151 3148 3146 3143 3139 3133 3129 3127 3126 3123 3121 3120 3120
3155 3156 3157 3157 3159 3160 3158 3163 3162 3163 3164 3166 3167 3168 3168 3169 3168 3167 3167 3167 3166 3166 3164 3165 3163 3162 3160 3159 3158 3155 3152 3149 3147 3144 3141 3137 3133 3131 3129 3128 3125 3123 3124
3151 3152 3151 3151 3154 3155 3156 3156 3158 3158 3160 3161 3161 3163 3163 3164 3164 3162 3162 3163 3162 3161 3161 3161 3161 3160 3159 3158 3157 3156 3154 3151 3147 3146 3143 3139 3136 3134 3132 3131 3129 3128 3126
3144 3145 3146 3147 3149 3151 3152 3152 3153 3154 3155 3156 3156 3157 3158 3159 3159 3158 3157 3159 3158 3157 3158 3158 3158 3158 3157 3157 3156 3155 3154 3152 3149 3147 3145 3141 3139 3137 3135 3134 3132 3130 3130
3140 3140 3141 3142 3143 3144 3146 3147 3147 3149 3150 3150 3150 3151 3152 3154 3154 3153 3153 3154 3154 3153 3154 3155 3155 3155 3154 3154 3154 3152 3152 3152 3150 3148 3147 3144 3142 3139 3139 3137 3136 3134 3132
3134 3135 3136 3137 3137 3138 3139 3141 3143 3145 3145 3145 3144 3144 3145 3147 3148 3149 3148 3148 3148 3148 3149 3150 3151 3151 3152 3151 3152 3151 3150 3150 3149 3148 3148 3145 3144 3142 3142 3139 3138 3136 3135
3127 3129 3131 3132 3133 3134 3135 3137 3139 3139 3138 3139 3140 3140 3140 3140 3140 3140 3141 3140 3140 3141 3144 3146 3146 3147 3147 3146 3147 3148 3147 3148 3148 3148 3147 3147 3146 3144 3144 3142 3140 3138 3137
3120 3122 3124 3126 3127 3128 3129 3131 3132 3132 3132 3133 3135 3134 3134 3133 3132 3131 3130 3129 3129 3131 3135 3140 3140 3140 3141 3142 3143 3144 3143 3144 3145 3146 3147 3147 3146 3146 3145 3143 3142 3142 3139
3113 3115 3118 3119 3121 3122 3123 3124 3126 3127 3127 3129 3130 3130 3130 3128 3125 3122 3121 3120 3120 3123 3128 3131 3133 3134 3135 3135 3136 3137 3138 3140 3142 3144 3146 3146 3145 3146 3145 3144 3143 3144 3143
3108 3109 3110 3112 3114 3116 3117 3119 3120 3121 3123 3124 3125 3126 3126 3125 3123 3121 3119 3117 3116 3118 3122 3125 3126 3128 3128 3129 3131 3131 3133 3135 3138 3141 3143 3144 3145 3145 3145 3144 3144 3144 3145
3102 3104 3105 3107 3109 3109 3111 3112 3114 3115 3117 3118 3119 3120 3122 3122 3122 3120 3119 3117 3118 3118 3120 3121 3122 3122 3123 3124 3125 3126 3128 3129 3130 3134 3139 3141 3142 3143 3144 3144 3145 3145 3145
3094 3097 3100 3102 3103 3105 3106 3108 3109 3110 3111 3112 3113 3114 3116 3117 3118 3117 3117 3117 3116 3116 3117 3117 3117 3117 3118 3118 3119 3121 3121 3125 3128 3131 3134 3136 3138 3141 3142 3142 3143 3144 3145
3086 3090 3093 3096 3098 3099 3100 3101 3103 3105 3106 3108 3109 3109 3110 3111 3112 3112 3112 3112 3112 3112 3112 3113 3113 3113 3113 3113 3115 3115 3118 3121 3125 3127 3129 3131 3134 3137 3139 3140 3141 3142 3143
3080 3083 3086 3089 3092 3095 3096 3097 3098 3099 3101 3102 3104 3104 3105 3106 3107 3107 3107 3108 3107 3107 3107 3107 3108 3108 3109 3110 3112 3113 3115 3118 3119 3123 3126 3128 3130 3131 3135 3136 3137 3139 3140
3076 3077 3080 3083 3086 3089 3092 3092 3093 3093 3095 3096 3098 3099 3100 3102 3102 3103 3103 3103 3103 3102 3101 3101 3102 3103 3104 3105 3106 3108 3110 3112 3115 3117 3120 3123 3125 3126 3127 3130 3131 3133 3135
3072 3074 3075 3078 3080 3083 3086 3087 3089 3089 3089 3090 3092 3093 3095 3096 3098 3098 3098 3097 3097 3097 3097 3097 3097 3099 3099 3100 3101 3102 3104 3105 3108 3110 3110 3113 3117 3118 3118 3122 3125 3128 3129
Wind_Speed
12 13 13 12 12 13 12 11 11 11 10 10 9 9 9 10 10 9 11 14 16 19 22 25 26 26 29 30 31 31 31 30 28 27 25 18 13 11 9 10 9 11 9
5 8 12 13 14 14 13 12 12 11 12 9 9 10 11 11 11 10 11 13 14 17 20 23 25 26 27 30 31 29 31 31 31 29 26 19 12 7 6 7 10 9 8
20 12 8 11 15 15 14 13 13 12 11 10 9 11 11 12 14 12 12 13 14 16 18 21 24 26 26 28 30 31 32 30 32 29 24 18 10 6 8 9 9 9 9
19 22 15 11 13 13 14 14 13 11 11 10 10 11 12 13 14 14 12 12 13 15 17 19 23 25 25 27 30 31 32 31 33 30 24 18 12 10 10 10 7 8 9
22 20 15 9 11 13 13 13 12 10 9 8 7 8 9 12 15 15 13 12 13 14 16 18 21 23 25 26 29 30 31 31 34 32 27 20 16 13 12 13 9 8 9
20 24 19 17 11 13 11 11 10 9 9 9 8 9 10 12 14 16 14 12 11 14 14 17 20 21 23 24 26 28 30 30 33 32 27 21 18 14 13 14 11 10 11
25 27 26 18 17 18 17 15 13 13 15 15 15 15 15 15 16 18 15 13 11 12 14 15 19 19 20 21 23 25 27 27 31 31 28 24 19 16 15 17 12 12 14
20 24 29 25 22 23 19 19 18 18 20 21 20 19 20 20 20 19 17 14 12 12 13 14 17 17 19 19 20 22 24 27 28 30 28 27 23 20 17 24 14 14 14
11 15 22 30 24 22 20 22 22 20 19 18 16 13 14 17 19 18 15 13 13 12 12 14 16 16 17 17 17 18 21 24 25 27 27 27 25 23 20 20 20 13 11
26 26 29 20 24 23 22 18 19 19 18 18 15 11 10 13 15 17 13 12 13 13 12 13 15 15 15 15 14 15 18 21 22 24 25 26 26 22 21 20 17 14 12
36 37 34 30 27 28 23 17 17 19 19 17 15 11 9 13 15 17 14 12 12 13 12 12 15 15 14 14 12 12 14 17 17 21 24 24 25 22 18 19 19 13 10
19 20 22 23 24 23 18 17 17 18 18 15 13 12 12 12 12 16 14 12 12 12 11 13 14 16 14 15 13 11 11 12 14 16 21 22 22 22 18 15 17 15 11
19 18 18 19 20 18 16 14 14 14 15 16 16 16 16 16 12 15 13 10 11 13 11 12 13 13 13 13 13 11 9 10 11 12 17 19 19 19 20 14 15 15 15
19 21 17 17 15 16 18 18 18 18 18 17 18 18 18 15 17 16 15 12 11 11 12 13 12 12 10 13 15 13 9 8 9 9 12 15 17 16 18 16 14 14 14
18 19 21 20 19 17 17 18 18 19 21 21 20 20 20 19 17 17 18 17 14 15 15 14 11 9 12 15 10 17 10 6 7 8 7 10 14 16 17 15 14 14 13
17 20 21 22 22 20 21 20 21 21 22 21 22 22 22 22 21 22 26 25 23 21 19 17 14 14 16 12 11 15 13 7 4 5 5 5 8 12 14 16 15 14 15
21 20 22 22 22 23 23 21 22 22 19 19 19 20 21 23 25 27 30 34 32 29 24 21 17 16 16 15 14 14 10 6 4 4 5 2 2 6 9 12 14 14 13
21 23 23 22 22 23 23 23 24 22 21 20 20 15 14 17 22 27 27 34 38 37 33 25 20 17 15 15 16 18 13 6 2 2 5 5 3 0 4 8 10 11 12
19 21 24 25 23 23 23 23 22 18 16 17 15 13 15 15 14 17 18 17 26 33 28 23 21 18 14 20 18 24 20 14 9 6 6 7 6 5 3 5 6 8 10
18 17 17 21 24 23 23 22 22 21 19 18 16 13 8 7 7 8 7 6 7 14 22 24 22 22 19 17 17 20 20 21 16 19 20 10 8 9 7 5 5 5 7
24 18 16 18 20 20 21 21 21 21 21 18 17 14 9 4 6 6 4 5 7 9 10 13 16 16 19 22 20 19 23 25 20 21 21 13 11 8 11 8 7 6 5
34 29 22 18 18 18 18 18 16 15 14 15 16 16 15 13 10 11 8 7 6 8 10 13 15 15 15 19 20 19 27 15 12 17 17 12 12 11 10 12 10 9 8
25 25 23 19 15 14 15 16 17 17 16 15 13 13 14 15 13 12 13 11 10 9 10 11 13 13 11 11 21 28 22 13 15 15 15 13 12 11 11 12 13 11 10
23 24 25 24 21 16 12 14 16 17 16 16 16 15 14 13 12 11 12 14 15 16 15 14 14 16 14 16 20 19 20 23 19 18 19 19 17 16 15 12 14 14 13
5 15 19 22 24 25 19 11 12 15 17 18 18 18 16 15 14 15 15 17 19 20 17 16 15 14 14 16 22 27 23 16 22 23 27 25 24 23 21 18 17 16 14
0 3 14 19 19 19 18 20 16 14 16 15 17 19 18 16 16 17 17 15 14 12 10 8 8 9 8 15 16 20 19 24 23 28 33 29 27 32 25 21 20 19 18
Wind_Direction
227 224 226 235 235 241 242 240 245 261 263 263 271 279 289 292 305 320 326 333 340 345 356 1 7 2 1 1 1 2 360 1 3 1 0 1 5 350 359 346 355 7 28
232 270 252 244 242 244 246 244 248 252 262 272 283 290 293 300 303 314 315 320 326 336 344 354 4 3 360 0 3 2 3 3 4 8 4 3 2 2 343 5 2 21 45
245 249 273 259 245 244 246 245 246 254 265 275 277 283 293 300 303 311 312 317 319 328 337 348 358 2 360 360 3 3 5 7 6 11 9 4 11 8 14 29 28 41 82
230 235 229 262 254 244 244 246 247 254 265 281 289 293 297 297 296 301 307 314 316 321 331 344 352 359 358 0 2 6 5 10 9 12 19 17 24 29 34 37 49 50 89
231 233 234 207 257 244 239 244 249 254 262 274 295 305 310 304 291 295 300 307 313 315 328 341 346 356 356 360 3 6 5 11 13 12 24 25 28 35 38 42 57 72 99
242 224 228 223 217 239 229 232 239 251 259 266 277 282 293 312 317 298 292 296 305 309 327 337 339 352 354 357 4 6 4 12 15 16 24 32 28 32 45 51 57 83 109
207 215 217 220 227 237 228 230 240 252 263 269 272 277 281 288 299 306 296 285 291 307 322 330 332 344 351 355 5 7 6 9 17 20 25 38 36 32 52 55 61 84 118
244 239 220 223 236 244 243 248 256 263 269 272 274 275 276 276 285 292 302 277 281 298 310 317 324 337 344 352 3 8 5 9 18 21 27 38 43 36 55 68 67 89 120
201 235 231 215 243 245 251 252 261 270 272 274 273 273 269 267 275 285 298 273 275 290 297 306 315 329 337 347 357 9 8 10 17 19 29 40 46 46 50 62 78 88 114
245 248 254 263 266 257 258 255 255 261 266 270 268 269 275 273 275 283 287 268 272 277 286 296 306 318 328 340 349 7 12 10 16 18 30 44 50 52 58 63 67 88 106
244 247 247 235 237 252 254 255 253 257 261 264 254 265 271 273 273 276 273 267 269 275 287 295 300 306 315 331 342 359 15 10 18 19 31 46 54 58 59 70 76 82 122
236 238 238 239 245 241 240 249 244 248 257 249 260 259 267 277 271 272 271 270 266 271 279 289 290 297 309 330 340 347 7 8 12 21 30 47 54 55 58 72 86 89 91
242 229 240 243 246 243 236 238 245 244 245 253 258 252 262 262 260 260 265 269 259 258 274 280 279 288 307 325 335 338 355 351 9 16 35 45 52 56 58 65 77 93 98
244 240 243 245 244 245 246 243 245 250 252 256 256 252 260 259 257 253 260 262 264 259 262 270 273 278 304 329 330 335 335 340 352 10 33 47 55 56 59 61 68 75 87
236 243 247 247 251 252 250 253 253 256 264 265 261 258 257 256 256 257 264 270 265 256 259 268 271 263 283 298 287 313 327 326 331 356 17 45 62 59 60 62 69 69 73
238 243 244 248 247 250 250 255 257 258 264 270 271 266 262 261 258 261 268 271 267 258 257 263 270 269 284 285 289 296 316 299 310 334 331 37 61 66 59 59 64 73 71
238 238 243 246 249 248 242 245 256 261 263 264 267 269 270 271 271 271 269 269 266 257 256 256 261 261 261 260 256 266 272 254 285 284 303 307 25 76 62 60 63 69 79
239 246 245 246 249 249 253 256 255 254 259 257 256 260 276 288 289 287 281 262 256 257 258 255 259 253 236 248 255 257 247 187 147 282 269 263 242 267 90 73 65 68 74
239 243 244 242 245 247 248 249 247 239 239 246 252 266 286 307 317 309 301 275 249 245 248 242 244 246 246 253 253 251 233 217 227 278 294 257 236 233 190 102 86 79 83
240 241 242 241 239 239 246 249 245 242 238 244 250 261 289 324 331 317 327 339 281 243 240 240 236 243 245 248 247 246 228 233 242 242 265 251 230 228 226 163 129 103 95
241 242 244 240 237 235 239 244 246 245 245 241 241 244 253 273 297 301 304 250 265 260 243 238 242 243 256 260 244 237 238 236 252 238 232 243 224 218 225 207 186 171 144
241 243 243 244 233 230 233 235 233 237 239 238 237 241 249 259 274 267 271 263 257 251 251 250 250 247 250 233 236 242 234 232 219 204 218 219 226 215 219 216 215 195 200
219 219 225 224 228 232 231 232 236 240 242 243 244 244 246 252 253 251 254 254 254 260 264 261 261 271 259 219 235 238 239 224 205 216 209 210 217 225 219 219 217 213 197
219 208 205 218 229 243 247 235 232 236 241 245 247 249 249 250 251 249 249 259 269 277 280 278 272 274 247 240 240 241 238 245 214 213 217 215 216 229 246 237 234 219 213
182 207 209 221 229 238 242 245 243 239 239 240 239 242 246 250 250 250 252 260 271 279 281 281 269 259 251 239 232 239 249 260 239 236 232 231 226 223 227 229 231 231 223
264 211 192 204 206 214 224 231 244 256 249 246 243 241 241 243 251 256 261 268 275 282 285 275 264 238 256 234 239 245 240 232 228 239 234 233 233 231 225 219 220 228 233